Weather History for Taylorville, IL

Change the Weather History Date:

Saturday, May 4, 2013

  Actual Average (KSPI) Record (KSPI)
Temperature  
Mean Temperature 48 °F 60 °F  
Max Temperature 53 °F 71 °F 90 °F (1952)
Min Temperature 44 °F 49 °F 30 °F (1954)
Degree Days  
Heating Degree Days 16 6  
Month to date heating degree days 27  
Since 1 July heating degree days 5372  
Cooling Degree Days 0 1  
Month to date cooling degree days 4  
Year to date cooling degree days 24  
Moisture  
Dew Point 47 °F    
Average Humidity 98    
Maximum Humidity 100    
Minimum Humidity 93    
Precipitation  
Precipitation 0.70 in 0.14 in 1.41 in (1977)
Month to date precipitation 0.53  
Year to date precipitation 10.30  
Snow  
Snow 0.00 in 0.00 in T in (1951)
Month to date snowfall 0.0  
Since 1 July snowfall 20.9  
Snow Depth -    
Sea Level Pressure  
Sea Level Pressure 29.92 in    
Wind  
Wind Speed 5 mph (South)    
Max Wind Speed 12 mph    
Max Gust Speed -    
Visibility 9 miles    
Events Rain    
T = Trace of Precipitation, MM = Missing Value Source: NWS Daily Summary

Daily Weather History Graph

Daily Weather History Graph

Search for Another Location

Airport:

Trip Planner

Search our weather history database for the weather conditions in past years. The results will help you decide how hot, cold, wet, or windy it might be!

Date:

Astronomy

May. 04, 2013 Rise Set
Actual Time 5:54 AM CDT 7:54 PM CDT
Civil Twilight 5:25 AM CDT 8:23 PM CDT
Nautical Twilight 4:49 AM CDT 8:59 PM CDT
Astronomical Twilight 4:10 AM CDT 9:38 PM CDT
Moon 2:51 AM CDT (5/4) 2:53 PM CDT (5/4)
Length of Visible Light 14h 58m
Length of Day
13h 59m
Waning Crescent, 27% of the Moon is Illuminated
May 4
Waning Crescent
May 9
New
May 17
First Quarter
May 24
Full
May 31
Last Quarter

Hourly Weather History & Observations

Time (CDT) Temp. Windchill Dew Point Humidity Pressure Visibility Wind Dir Wind Speed Gust Speed Precip Events Conditions
12:15 AM 51.8 °F - 51.8 °F 100% 29.83 in 10.0 mi East 6.9 mph - N/A   Overcast
12:35 AM 51.8 °F - 51.8 °F 100% 29.83 in 10.0 mi SE 6.9 mph - N/A   Mostly Cloudy
12:55 AM 53.6 °F - 51.8 °F 94% 29.83 in 10.0 mi SSE 8.1 mph - N/A   Mostly Cloudy
1:15 AM 51.8 °F - 51.8 °F 100% 29.83 in 10.0 mi South 9.2 mph - N/A   Overcast
1:35 AM 48.2 °F - 48.2 °F 100% 29.84 in 5.0 mi South 10.4 mph - N/A Rain Light Rain
1:55 AM 48.2 °F - 48.2 °F 100% 29.84 in 10.0 mi South 6.9 mph - 0.01 in   Drizzle
2:15 AM 48.2 °F - 46.4 °F 93% 29.85 in 10.0 mi South 10.4 mph - 0.01 in Rain Light Rain
2:35 AM 46.4 °F 41.9 °F 46.4 °F 100% 29.84 in 10.0 mi South 9.2 mph - 0.02 in Rain Light Rain
2:55 AM 46.4 °F 43.5 °F 46.4 °F 100% 29.84 in 10.0 mi South 5.8 mph - N/A   Drizzle
3:15 AM 46.4 °F 43.5 °F 46.4 °F 100% 29.84 in 10.0 mi SE 5.8 mph - 0.01 in Rain Rain
3:35 AM 46.4 °F 43.5 °F 46.4 °F 100% 29.84 in 10.0 mi SE 5.8 mph - 0.03 in Rain Light Rain
3:55 AM 46.4 °F 41.1 °F 46.4 °F 100% 29.86 in 10.0 mi South 11.5 mph - N/A Rain Light Rain
4:15 AM 44.6 °F 39.2 °F 44.6 °F 100% 29.86 in 10.0 mi South 10.4 mph - 0.02 in Rain Light Rain
4:35 AM 44.6 °F 39.7 °F 44.6 °F 100% 29.86 in 10.0 mi South 9.2 mph - 0.02 in Rain Rain
4:55 AM 44.6 °F 40.2 °F 44.6 °F 100% 29.86 in 10.0 mi South 8.1 mph - N/A Rain Rain
5:15 AM 44.6 °F 42.2 °F 44.6 °F 100% 29.86 in 10.0 mi South 4.6 mph - 0.01 in Rain Light Rain
5:35 AM 44.6 °F 42.2 °F 44.6 °F 100% 29.86 in 10.0 mi South 4.6 mph - 0.03 in Rain Light Rain
5:55 AM 44.6 °F 41.4 °F 44.6 °F 100% 29.87 in 7.0 mi South 5.8 mph - 0.03 in Rain Rain
6:15 AM 44.6 °F 41.4 °F 44.6 °F 100% 29.88 in 10.0 mi South 5.8 mph - 0.07 in Rain Rain
6:35 AM 44.6 °F 42.2 °F 42.8 °F 93% 29.88 in 10.0 mi South 4.6 mph - 0.11 in Rain Light Rain
6:55 AM 44.6 °F 41.4 °F 44.6 °F 100% 29.88 in 10.0 mi SSW 5.8 mph - 0.01 in Rain Rain
7:15 AM 44.6 °F - 44.6 °F 100% 29.89 in 10.0 mi Calm Calm - 0.06 in Rain Rain
7:35 AM 44.6 °F - 44.6 °F 100% 29.89 in 10.0 mi Calm Calm - 0.09 in Rain Rain
7:55 AM 44.6 °F 42.2 °F 44.6 °F 100% 29.91 in 10.0 mi SSW 4.6 mph - 0.02 in Rain Rain
8:15 AM 44.6 °F 40.7 °F 44.6 °F 100% 29.91 in 10.0 mi SSW 6.9 mph - 0.05 in Rain Rain
8:35 AM 44.6 °F 40.7 °F 44.6 °F 100% 29.92 in 10.0 mi SSW 6.9 mph - 0.08 in Rain Rain
8:55 AM 44.6 °F 43.1 °F 42.8 °F 93% 29.92 in 10.0 mi SSW 3.5 mph - 0.01 in Rain Rain
9:15 AM 44.6 °F - 44.6 °F 100% 29.91 in 10.0 mi Calm Calm - 0.04 in Rain Light Rain
9:35 AM 44.6 °F - 44.6 °F 100% 29.92 in 10.0 mi Calm Calm - 0.05 in   Drizzle
9:55 AM 44.6 °F - 44.6 °F 100% 29.92 in 10.0 mi Calm Calm - 0.01 in Rain Rain
10:15 AM 44.6 °F - 44.6 °F 100% 29.92 in 10.0 mi Calm Calm - 0.01 in   Drizzle
10:35 AM 46.4 °F - 44.6 °F 93% 29.92 in 10.0 mi Calm Calm - 0.01 in Rain Light Rain
10:55 AM 46.4 °F - 44.6 °F 93% 29.93 in 10.0 mi Calm Calm - N/A Rain Light Rain
11:15 AM 46.4 °F - 44.6 °F 93% 29.93 in 10.0 mi Calm Calm - 0.02 in Rain Light Rain
11:35 AM 48.2 °F - 46.4 °F 93% 29.93 in 10.0 mi Calm Calm - 0.03 in Rain Light Rain
11:55 AM 48.2 °F - 46.4 °F 93% 29.92 in 7.0 mi Calm Calm - 0.01 in Rain Rain
12:15 PM 48.2 °F - 48.2 °F 100% 29.92 in 10.0 mi NNE 3.5 mph - 0.02 in Rain Light Rain
12:35 PM 50.0 °F - 48.2 °F 94% 29.92 in 10.0 mi Calm Calm - 0.03 in Rain Light Rain
12:55 PM 50.0 °F - 48.2 °F 94% 29.92 in 10.0 mi Calm Calm - 0.01 in Rain Light Rain
1:15 PM 50.0 °F - 48.2 °F 94% 29.92 in 10.0 mi SSE 3.5 mph - 0.03 in Rain Rain
1:35 PM 50.0 °F - 48.2 °F 94% 29.92 in 10.0 mi SSW 5.8 mph - 0.05 in Rain Light Rain
1:55 PM 50.0 °F - 48.2 °F 94% 29.92 in 10.0 mi SSW 4.6 mph - 0.01 in Rain Light Rain
2:15 PM 48.2 °F - 48.2 °F 100% 29.92 in 10.0 mi SSW 4.6 mph - 0.04 in Rain Rain
2:35 PM 48.2 °F - 48.2 °F 100% 29.93 in 10.0 mi South 5.8 mph - 0.06 in Rain Rain
2:55 PM 48.2 °F - 48.2 °F 100% 29.93 in 7.0 mi SSW 3.5 mph - 0.01 in Rain Rain
3:15 PM 48.2 °F - 48.2 °F 100% 29.93 in 10.0 mi SSW 5.8 mph - 0.03 in Rain Light Rain
3:35 PM 48.2 °F - 48.2 °F 100% 29.93 in 10.0 mi SSW 4.6 mph - 0.04 in Rain Light Rain
3:55 PM 48.2 °F - 48.2 °F 100% 29.93 in 10.0 mi South 3.5 mph - 0.01 in   Light Drizzle
4:15 PM 50.0 °F - 48.2 °F 94% 29.93 in 10.0 mi SSW 3.5 mph - 0.01 in   Light Drizzle
4:35 PM 50.0 °F - 48.2 °F 94% 29.94 in 10.0 mi South 3.5 mph - 0.01 in   Drizzle
4:55 PM 48.2 °F - 48.2 °F 100% 29.95 in 7.0 mi SSW 6.9 mph - 0.01 in Rain Rain
5:15 PM 48.2 °F - 48.2 °F 100% 29.95 in 10.0 mi SSW 4.6 mph - 0.02 in   Drizzle
5:35 PM 50.0 °F - 48.2 °F 94% 29.96 in 7.0 mi Calm Calm - 0.03 in   Drizzle
5:55 PM 50.0 °F - 48.2 °F 94% 29.96 in 10.0 mi South 6.9 mph - N/A   Light Drizzle
6:15 PM 50.0 °F - 48.2 °F 94% 29.96 in 10.0 mi South 5.8 mph - N/A   Overcast
6:35 PM 50.0 °F - 48.2 °F 94% 29.97 in 10.0 mi SE 5.8 mph - N/A   Overcast
6:55 PM 50.0 °F - 48.2 °F 94% 29.97 in 10.0 mi SSE 4.6 mph - N/A   Overcast
7:15 PM 48.2 °F - 48.2 °F 100% 29.98 in 10.0 mi SSE 4.6 mph - N/A   Overcast
7:35 PM 48.2 °F - 48.2 °F 100% 29.98 in 10.0 mi South 5.8 mph - N/A   Overcast
7:55 PM 48.2 °F - 48.2 °F 100% 29.99 in 10.0 mi South 5.8 mph - N/A   Overcast
8:15 PM 48.2 °F - 46.4 °F 93% 30.00 in 7.0 mi South 4.6 mph - N/A   Overcast
8:35 PM 48.2 °F - 46.4 °F 93% 30.01 in 5.0 mi South 3.5 mph - N/A   Overcast
8:55 PM 46.4 °F 44.3 °F 46.4 °F 100% 30.01 in 4.0 mi SSW 4.6 mph - N/A   Overcast
9:15 PM 46.4 °F 44.3 °F 46.4 °F 100% 30.01 in 4.0 mi WSW 4.6 mph - N/A   Overcast
9:35 PM 46.4 °F 45.2 °F 46.4 °F 100% 30.01 in 7.0 mi WSW 3.5 mph - N/A   Overcast
9:55 PM 46.4 °F 43.5 °F 46.4 °F 100% 30.01 in 10.0 mi WSW 5.8 mph - N/A Rain Light Rain
10:15 PM 46.4 °F 45.2 °F 46.4 °F 100% 30.00 in 10.0 mi West 3.5 mph - N/A   Light Drizzle
10:35 PM 46.4 °F - 46.4 °F 100% 30.01 in 10.0 mi Calm Calm - N/A   Overcast
10:55 PM 46.4 °F - 46.4 °F 100% 30.01 in 10.0 mi Calm Calm - N/A   Overcast
11:15 PM 46.4 °F 45.2 °F 46.4 °F 100% 30.00 in 10.0 mi WNW 3.5 mph - N/A   Overcast
11:35 PM 46.4 °F 45.2 °F 46.4 °F 100% 30.00 in 10.0 mi NNW 3.5 mph - N/A   Overcast
11:55 PM 46.4 °F 44.3 °F 46.4 °F 100% 30.00 in 10.0 mi NNW 4.6 mph - N/A   Overcast